Other Surface Observations
Issued by NWS

Home | Current Version | Previous Version | Text Only | Print | Product List | Glossary On
Versions: 1 2 3 4 5 6 7 8 9 10 11 12 13 14 15 16 17 18 19 20 21 22 23 24 25 26 27 28 29 30 31 32 33 34 35 36 37 38 39 40 41 42 43 44 45 46 47 48 49 50
000
SXUS52 KTAE 310618
OSOTAE
OSOTAE
North Florida/South Alabama/Southwest Georgia Weather Roundup
National Weather Service Tallahassee Florida
200 AM EDT FRI OCT 31 2014

Note: "fair" indicates few or no clouds below 12,000 feet with no
significant weather and/or obstructions to visibility.

!FLZ017-115-028-034-025-310700
...North Florida...

CITY           SKY/WX    TMP DP  RH WIND       PRES   REMARKS
TALLAHASSEE    CLEAR     46  41  82 W3        29.95S
APALACHICOLA   CLEAR     57  46  66 N8        29.96S
PERRY          CLEAR     50  48  93 CALM      29.93F
CROSS CITY       N/A     64  50  60 N6        29.91F
JACKSONVILLE   PTCLDY    59  57  93 W5        29.88F
$$

!FLZ112-006-005-002-011-310700
...Florida Panhandle...

CITY           SKY/WX    TMP DP  RH WIND       PRES   REMARKS
MARIANNA       CLEAR     49  46  90 CALM      29.97S
BONIFAY        FAIR      47  45  93 CALM      29.99F
PANAMA CITY NW FAIR      48  43  82 NW5       29.97F
TYNDALL AFB    CLEAR     59  44  58 N10G16    29.97F
TYND DRONE APT FAIR      58  48  67 MISG      29.96F
DE FUNIAK SPR  FAIR      50  44  80 N5        30.00S
EGLIN AFB      CLEAR     53  42  65 N9        30.00S
DESTIN         CLEAR     59  45  59 N8        30.00S
HURLBURT       CLEAR     48  40  72 N7        29.99S
CRESTVIEW      CLEAR     50  43  77 N5        30.01S
PENSACOLA      CLEAR     55  40  56 N7        30.01S
$$

!ALZ063-066-310700
...South Alabama...

CITY           SKY/WX    TMP DP  RH WIND       PRES   REMARKS
DOTHAN         CLEAR     49  42  77 NW6       30.01F
OZARK CAIRNS   CLEAR     51  41  70 NW7       29.98F
FT RUCKER HELI CLEAR     43  40  89 CALM      29.98F FOG
RUCKER HELI 3  NOT AVBL
RUCKER HELI 2  FAIR      48  41  76 N5        29.99S
FLORALA APT    CLEAR     51  42  71 N3        30.01F
ANDALUSIA      CLEAR     49  42  77 CALM      29.99F
TROY           CLEAR     42  40  92 CALM      30.00F
EUFALA         FAIR      43  41  93 CALM      29.98F
MOBILE         CLEAR     44  43  96 NW3       30.03F
$$

!GAZ120>161-310700
...Southwest and South Central Georgia...

CITY           SKY/WX    TMP DP  RH WIND       PRES   REMARKS
THOMASVILLE    FAIR      54  46  76 NW6       29.94F
BAINBRIDGE     CLEAR     55  46  71 NW7       29.96S
MOODY AFB      CLEAR     51  46  84 N6        29.92F
VALDOSTA       CLEAR     50  44  80 CALM      29.92F
MOULTRIE       CLEAR     50  50 100 CALM      29.94F
BLAKELY        CLEAR     54  46  76 CALM      29.97F
ALBANY         CLEAR     52  45  77 CALM      29.98S
TIFTON         FAIR      55  46  72 N5        29.93F
FITZGERALD     FAIR      55  44  65 N3        29.95F
CORDELE        FAIR      48  46  92 CALM      29.96F
AMERICUS       FAIR      48  43  81 CALM      29.97F
HOMERVILLE     FAIR      52  50  93 CALM      29.92S
$$

!GMZ750-755-770-775-310700
...Coastal and Buoy Obs...

STATION/POSITION TIME  TEMP    WIND        PRES    VSBY  WAVE
                       AIR SEA DIR/SP/G                  HT/PER
                 (UTC) (F)     (DEG/KT/KT) (MB)    (MI)  (FT/S)
KEATON BEACH     0600   59     360/  6/  8 1013.3F
CEDAR KEY        0600   66     350/  6/  7 1013.1F
C TOWER          0600   67     360/ 18/ 19 1013.6F
APALACHICOLA BUO 0600   73 80  350/ 14/ 17 1013.2F         2/ 3
PANAMA CITY BUOY 0512   71 79   10/ 12/ 16 1014.3F         3/ 5
MOBILE BUOY      0518   70 77  360/ 14/ 17 1016.5F         3/ 5
ORANGE BCH AL BU 0600   67 76   10/ 14/ 16 1015.7F         1/ 3
$$



USA.gov is the U.S. government's official web portal to all federal, state and local government web resources and services.